Regional Weather Roundup
Issued by NWS

Home | Current Version | Previous Version | Text Only | Print | Product List | Glossary On
Versions: 1 2 3 4 5 6 7 8 9 10 11 12 13 14 15 16 17 18 19 20 21 22 23 24 25 26 27 28 29 30 31 32 33 34 35 36 37 38 39 40 41 42 43 44 45 46 47 48 49 50
000
ASUS43 KBIS 242301
RWRND

NORTH DAKOTA REGIONAL WEATHER ROUNDUP
NATIONAL WEATHER SERVICE BISMARCK ND
600 PM CDT FRI APR 24 2015

NOTE: "FAIR" INDICATES FEW OR NO CLOUDS BELOW 12,000 FEET WITH NO
SIGNIFICANT WEATHER AND/OR OBSTRUCTIONS TO VISIBILITY.


NDZ001>003-009>011-017-250000-
NORTHWEST NORTH DAKOTA

CITY           SKY/WX    TMP DP  RH WIND       PRES   REMARKS
WILLISTON      SUNNY     69  32  25 E9        29.59F
MINOT          SUNNY     64  34  32 E7        29.64S
MINOT AFB      SUNNY     63  36  36 E9G17     29.63S
$$

NDZ018>021-031>035-040>046-250000-
SOUTHWEST NORTH DAKOTA

CITY           SKY/WX    TMP DP  RH WIND       PRES   REMARKS
BISMARCK       SUNNY     67  39  35 E13       29.60S
DICKINSON      SUNNY     68  33  27 NE10      29.57S
GARRISON         N/A     65  36  34 E8        29.61F
HETTINGER ARPT SUNNY     69  32  25 E14       29.58S
$$

NDZ004>008-012>016-024-026-027-054-250000-
NORTHEAST NORTH DAKOTA

CITY           SKY/WX    TMP DP  RH WIND       PRES   REMARKS
GRAND FORKS    CLOUDY    53  39  59 SE13      29.74R
GRND FRKS AFB  CLOUDY    53  39  58 E14       29.73S
DEVILS LAKE    SUNNY     57  39  51 E14       29.69R
$$

NDZ022-023-025-028>030-036>039-047>053-250000-
SOUTHEAST NORTH DAKOTA

CITY           SKY/WX    TMP DP  RH WIND       PRES   REMARKS
FARGO          CLOUDY    52  41  66 SE15G24   29.72R
JAMESTOWN      MOSUNNY   60  42  51 E16       29.64S
$$




USA.gov is the U.S. government's official web portal to all federal, state and local government web resources and services.